This is the latest recevied weather packets stored in our database for station/object KD7CIH. If no packets are shown the sender has not sent any weather packets the latest 10 day(s).
| Time | Temp. | Humidity | Pressure | Rain* | Wind** | Luminosity | Snow |
|---|---|---|---|---|---|---|---|
| 1788450735 | 18.89° C | 26% | 1013 hPa | 0 mm | - | - | - |
| 1788450305 | 18.89° C | 27% | 1013.1 hPa | 0 mm | - | - | - |
| 1788450007 | 18.33° C | 30% | 1013.3 hPa | 0 mm | - | - | - |
| 1788449834 | 18.33° C | 29% | 1013.1 hPa | 0 mm | - | - | - |
| 1788449406 | 17.78° C | 30% | 1013.1 hPa | 0 mm | - | - | - |
| 1788449105 | 17.78° C | 29% | 1013.3 hPa | 0 mm | - | - | - |
| 1788448933 | 17.78° C | 31% | 1013.3 hPa | 0 mm | - | - | - |
| 1788448508 | 17.22° C | 37% | 1013.3 hPa | 0 mm | - | - | - |
| 1788448208 | 16.67° C | 36% | 1013.4 hPa | 0 mm | - | - | - |
| 1788447907 | 16.67° C | 38% | 1013.4 hPa | 0 mm | - | - | - |
| 1788447605 | 16.11° C | 40% | 1013.4 hPa | 0 mm | - | - | - |
| 1788447306 | 15.56° C | 40% | 1013.4 hPa | 0 mm | - | - | - |
| 1788447007 | 15° C | 42% | 1013.3 hPa | 0 mm | - | - | - |
| 1788446833 | 15° C | 46% | 1013.4 hPa | 0 mm | - | - | - |
| 1788446406 | 14.44° C | 46% | 1013.3 hPa | 0 mm | - | - | - |
| 1788446107 | 14.44° C | 47% | 1013.3 hPa | 0 mm | - | - | - |
| 1788445805 | 13.89° C | 49% | 1013.1 hPa | 0 mm | - | - | - |
| 1788445506 | 13.89° C | 50% | 1013.1 hPa | 0 mm | - | - | - |
| 1788445206 | 13.33° C | 51% | 1013 hPa | 0 mm | - | - | - |
| 1788444906 | 13.33° C | 51% | 1013 hPa | 0 mm | - | - | - |
| 1788444734 | 13.33° C | 51% | 1012.9 hPa | 0 mm | - | - | - |
| 1788444306 | 12.78° C | 51% | 1012.9 hPa | 0 mm | - | - | - |
| 1788444006 | 12.78° C | 55% | 1012.9 hPa | 0 mm | - | - | - |
| 1788443709 | 12.22° C | 60% | 1012.8 hPa | 0 mm | - | - | - |
| 1788443407 | 12.22° C | 59% | 1012.8 hPa | 0 mm | - | - | - |
* Rain latest hour (hover to see other rain measurements)
** Current wind speed in m/s (hover to see current wind gust speed)